Baton Rouge, LA

6:22 PM CST on November 22, 2019 (GMT -0600)
Baton Rouge Metro-Ryan

Weather History for KBTR - October, 2019

Change the Weather History Date:

Wednesday, October 23, 2019

  Actual Average Record
Temperature  
Mean Temperature 61 °F 67 °F  
Max Temperature 75 °F 79 °F 91 °F (1939)
Min Temperature 46 °F 56 °F 37 °F (1937)
Degree Days  
Heating Degree Days 4 2  
Month to date heating degree days 14 23  
Since 1 July heating degree days 14 25  
Cooling Degree Days 0 4  
Month to date cooling degree days 216 149  
Year to date cooling degree days 3099 2720  
Growing Degree Days 10 (Base 50)    
Moisture  
Dew Point 44 °F    
Average Humidity 60    
Maximum Humidity 93    
Minimum Humidity 27    
Precipitation  
Precipitation 0.00 in 0.16 in 2.73 in (1913)
Month to date precipitation 5.06 3.47  
Year to date precipitation 56.81 49.72  
Snow  
Snow 0.00 in - - ()
Month to date snowfall 0.0  
Since 1 July snowfall 0.0  
Since 1 September snowfall 0.0  
Snow Depth 0.00 in    
Sea Level Pressure  
Sea Level Pressure 30.15 in    
Wind  
Wind Speed 4 mph (East)    
Max Wind Speed 15 mph    
Max Gust Speed 20 mph    
Visibility 10 miles    
Events      
T = Trace of Precipitation, MM = Missing Value Source: NWS Daily Summary

Daily Weather History Graph

Daily Weather History Graph

Search for Another Location

Airport or City:

Astronomy

Oct. 23, 2019 Rise Set
Actual Time 7:12 AM CDT 6:25 PM CDT
Civil Twilight 6:47 AM CDT 6:49 PM CDT
Nautical Twilight 6:19 AM CDT 7:17 PM CDT
Astronomical Twilight 5:51 AM CDT 7:45 PM CDT
Moon 2:01 AM CDT 3:48 PM CDT
Length of Visible Light 12h 01m
Length of Day
11h 12m
Waning Crescent, 26% of the Moon is Illuminated
Oct 23
Waning Crescent
Oct 27
New
Nov 4
First Quarter
Nov 12
Full
Nov 19
Last Quarter

Hourly Weather History & Observations

Time (CDT) Temp. Dew Point Humidity Pressure Visibility Wind Dir Wind Speed Gust Speed Precip Events Conditions
12:53 AM 50.0 °F 46.9 °F 89% 30.16 in 10.0 mi Calm Calm - N/A   Clear
1:53 AM 48.9 °F 46.0 °F 90% 30.16 in 10.0 mi Calm Calm - N/A   Clear
2:53 AM 48.9 °F 46.0 °F 90% 30.15 in 10.0 mi Calm Calm - N/A   Clear
3:53 AM 48.0 °F 45.0 °F 89% 30.16 in 10.0 mi Calm Calm - N/A   Clear
4:53 AM 46.9 °F 45.0 °F 93% 30.17 in 10.0 mi Calm Calm - N/A   Clear
5:53 AM 46.9 °F 44.1 °F 90% 30.17 in 10.0 mi NNE 3.5 mph - N/A   Clear
6:53 AM 46.9 °F 44.1 °F 90% 30.17 in 10.0 mi Calm Calm - N/A   Clear
7:53 AM 48.9 °F 45.0 °F 86% 30.19 in 10.0 mi Calm Calm - N/A   Clear
8:53 AM 55.0 °F 46.9 °F 74% 30.20 in 10.0 mi ENE 4.6 mph - N/A   Clear
9:53 AM 63.0 °F 46.0 °F 54% 30.21 in 10.0 mi East 9.2 mph - N/A   Clear
10:53 AM 68.0 °F 42.1 °F 39% 30.20 in 10.0 mi East 9.2 mph - N/A   Clear
11:53 AM 71.1 °F 39.0 °F 31% 30.19 in 10.0 mi East 10.4 mph - N/A   Clear
12:53 PM 72.0 °F 41.0 °F 33% 30.17 in 10.0 mi East 4.6 mph - N/A   Clear
1:53 PM 73.0 °F 41.0 °F 31% 30.14 in 10.0 mi ENE 5.8 mph - N/A   Clear
2:53 PM 73.9 °F 39.9 °F 29% 30.12 in 10.0 mi Variable 3.5 mph - N/A   Clear
3:53 PM 75.0 °F 39.9 °F 28% 30.11 in 10.0 mi Variable 3.5 mph - N/A   Clear
4:53 PM 73.0 °F 43.0 °F 34% 30.10 in 10.0 mi ESE 8.1 mph - N/A   Clear
5:53 PM 69.1 °F 43.0 °F 39% 30.10 in 10.0 mi ESE 6.9 mph - N/A   Clear
6:53 PM 63.0 °F 42.1 °F 46% 30.11 in 10.0 mi SE 5.8 mph - N/A   Clear
7:53 PM 57.9 °F 46.9 °F 67% 30.13 in 10.0 mi East 4.6 mph - N/A   Clear
8:53 PM 55.9 °F 46.9 °F 72% 30.13 in 10.0 mi NE 3.5 mph - N/A   Clear
9:53 PM 54.0 °F 48.0 °F 80% 30.13 in 10.0 mi Calm Calm - N/A   Clear
10:53 PM 52.0 °F 48.0 °F 86% 30.14 in 10.0 mi NE 4.6 mph - N/A   Clear
11:53 PM 52.0 °F 48.0 °F 86% 30.12 in 10.0 mi Calm Calm - N/A   Clear